Location: Peebles
(55.6412°N, 3.1714°W)
Time: 22:07:41
(UTC+01:00)

deb AGENA D - Pass Details

Date: 06 July 2022
Orbit: 951 x 1019 km, 99.8° (Epoch: 17 August)

Event Time Altitude Azimuth Distance (km) Brightness Sun altitude
Rises 23:34:45 0° 100° (E) 3,761 ? -8.7°
Reaches altitude 10° 23:37:57 10° 84° (E) 2,811 ? -8.9°
Maximum altitude 23:42:14 20° 41° (NE) 2,184 ? -9.2°
Drops below altitude 10° 23:46:31 10° 358° (N) 2,804 ? -9.4°
Sets 23:49:41 0° 342° (NNW) 3,748 ? -9.5°
